Regional Weather Roundup
Issued by NWS Newport/Morehead, NC

Current Version | Previous Version | Graphics & Text | Print | Product List | Glossary Off
Versions: 1 2 3 4 5 6 7 8 9 10 11 12 13 14 15 16 17 18 19 20 21 22 23 24 25 26 27 28 29 30 31 32 33 34 35 36 37 38 39 40 41 42 43 44 45 46 47 48 49 50

000
ASUS42 KMHX 032325
RWRMHX
WEATHER ROUNDUP FOR EASTERN NORTH CAROLINA
NATIONAL WEATHER SERVICE NEWPORT/MOREHEAD CITY NC
700 PM EDT MON AUG 03 2015

NOTE: "FAIR" INDICATES FEW OR NO CLOUDS BELOW 12,000 FEET
WITH NO SIGNIFICANT WEATHER AND/OR OBSTRUCTIONS TO VISIBILITY

NCZ015>017-031-032-045>047-102-103-040000-
NORTH COAST

CITY           SKY/WX    TMP DP  RH WIND       PRES   REMARKS
EDENTON          N/A     83  73  72 S14       29.90R
ELIZABETH CITY PTSUNNY   82  74  76 S10       29.90S
KITTY HAWK     CLOUDY    80  71  74 SW8G17    29.91S
MANTEO         CLOUDY    79  72  80 SW15G21   29.92S

$$

NCZ045>047-081-094-103-104-040000-
CENTRAL COAST

CITY           SKY/WX    TMP DP  RH WIND       PRES   REMARKS
FRISCO         CLOUDY    77  72  84 SW16G23   29.95S
SWANQUARTER      N/A     79 N/A N/A S16G23    29.91R

$$

NCZ095-097-098-100-101-040000-
SOUTHERN COAST

CITY           SKY/WX    TMP DP  RH WIND       PRES   REMARKS
BEAUFORT       CLOUDY    78  74  87 S12       29.94F
CEDAR ISLAND     N/A     77 N/A N/A S8        29.97S
JACKSONVILLE   PTSUNNY   79  72  79 W3        29.94R
PINEY ISLAND   MOCLDY   N/A N/A N/A S9        29.93S
WILMINGTON     PTSUNNY   79  75  87 S8        29.94S


$$

NCZ011>013-027>030-043-044-078>080-089-090>093-098-040000-
COASTAL PLAIN

CITY           SKY/WX    TMP DP  RH WIND       PRES   REMARKS
AHOSKIE        SUNNY     86  73  64 S12G18    29.88R
CLINTON        SUNNY     86  74  65 S7        29.92R
ELIZABETHTOWN  PTSUNNY   83  71  66 S9G17     29.94R
GOLDSBORO      SUNNY     87  73  62 S9        29.89S
GREENVILLE     SUNNY     86  73  66 S13       29.92R
HAVELOCK       PTSUNNY   79  73  82 S9        29.95R
KENANSVILLE    MOSUNNY  N/A N/A N/A CALM      29.93S
KINSTON        SUNNY     86  72  62 S9        29.92S
NEW BERN       PTSUNNY   80  71  74 S7        29.94F
RICHLANDS      MOSUNNY   81  68  65 S9        29.94S
ROCKY MOUNT    MOSUNNY   88  72  58 S14G21    29.89R
WASHINGTON     MOSUNNY   82  72  71 S9        29.92R
WHITEVILLE     LGT RAIN  78  75  90 CALM      29.93R

$$

AMZ130-135-150-152-154-156-158-170-250-252-270-ANZ085-086-088-633-658-670-040000-
MARINE OBSERVATIONS

STATION/POSITION TIME  TEMP    WIND        PRES    WAVE   SWELL
                       AIR SEA DIR/SP/G            HT/PER HT/PER
                 (UTC) (F)     (DEG/KT/KT) (MB)    (FT/S) (FT/S)
CHESAPEAKE LIGHT 2300   80     190/ 23/ 25 1011.8
64 E VA BEACH    2250   79 81  210/ 19/ 23 1012.3    5/ 6   2/11
DUCK             2300   80 66  200/ 19/ 24 1011.7
2 E DUCK         2211      71                N/A     2/11   2/11
OREGON INLET     2300   78 81  200/ 20/ 23 1013.4
13E OREGON INLT  2300      80                N/A     4/ 5   2/11
HATTERAS CG      2300   78 80  200/ 11/ 16 1013.8
DIAMOND BUOY     2250   78 84  190/ 17/ 21 1014.4    4/ 6   2/11
CAPE LOOKOUT     2300   78     180/ 15/ 16 1013.9
BEAUFORT LAB     2300   79 80  190/ 14/ 16 1013.1
30 SE NEW RVR IN NOT AVBL
27 SE WRIGHTSVLE 2300   78 82  210/ 10/ 14   N/A
5 SE WRIGHTSVLE  2208   81 83  200/ 14/ 19 1014.0
225 S CAPE HAT   2250   83 81  190/ 14/ 16 1016.7    5/ 7   3/11
41 SE CHARLESTON 2250   82 83  150/ 10/ 12 1012.8    5/ 6   3/ 6

$$


USA.gov is the U.S. government's official web portal to all federal, state and local government web resources and services.